,,PA_Meas_PMT16A,,PR_Meas_QMR101_102,,RH_Meas_QMH101,,SR_Meas_QMS101,,TA_Meas_QMH101,,GenWind,,GenWind,
time,status,PA,status,PR,status,RH,status,SR,status,TA,status,DirAvg,status,SpdAvg,
2016-04-25, 07:40:04,VALID,917.304,VALID,0,VALID,104,VALID,112.169,VALID,19.8798,VALID,144,VALID,1.35234,
2016-04-25, 07:41:04,VALID,917.315,VALID,0,VALID,104,VALID,126.028,VALID,19.9188,VALID,129,VALID,1.12188,
2016-04-25, 07:42:04,VALID,917.322,VALID,0,VALID,104,VALID,129.789,VALID,19.8993,VALID,132,VALID,1.62656,
2016-04-25, 07:43:04,VALID,917.354,VALID,0,VALID,104,VALID,135.806,VALID,19.9563,VALID,134,VALID,0,
2016-04-25, 07:44:04,VALID,917.37,VALID,0,VALID,104,VALID,137.847,VALID,19.9758,VALID,140,VALID,1.22812,
2016-04-25, 07:45:04,VALID,917.398,VALID,0,VALID,104,VALID,136.45,VALID,20.0343,VALID,125,VALID,0,
2016-04-25, 07:46:04,VALID,917.404,VALID,0,VALID,104,VALID,134.409,VALID,20.0749,VALID,101,VALID,0.476172,
2016-04-25, 07:47:04,VALID,917.438,VALID,0,VALID,104,VALID,131.078,VALID,20.0928,VALID,103,VALID,1.06758,
2016-04-25, 07:48:04,VALID,917.44,VALID,0,VALID,104,VALID,129.252,VALID,20.1318,VALID,81,VALID,0.835547,
2016-04-25, 07:49:04,VALID,917.467,VALID,0,VALID,104,VALID,130.219,VALID,20.1903,VALID,105,VALID,1.23008,
2016-04-25, 07:50:04,VALID,917.471,VALID,0,VALID,104,VALID,133.657,VALID,20.2293,VALID,114,VALID,0.978516,
2016-04-25, 07:51:04,VALID,917.481,VALID,0,VALID,104,VALID,137.74,VALID,20.3058,VALID,76,VALID,0.478516,
2016-04-25, 07:52:04,VALID,917.509,VALID,0,VALID,104,VALID,139.029,VALID,20.4049,VALID,81,VALID,0.381641,
2016-04-25, 07:53:04,VALID,917.484,VALID,0,VALID,104,VALID,136.773,VALID,20.3448,VALID,108,VALID,0.925391,
2016-04-25, 07:54:04,VALID,917.509,VALID,0,VALID,104,VALID,138.814,VALID,20.4033,VALID,101,VALID,0.621094,
2016-04-25, 07:55:04,VALID,917.517,VALID,0,VALID,104,VALID,172.228,VALID,20.3448,VALID,148,VALID,1.01406,
2016-04-25, 07:56:04,VALID,917.547,VALID,0,VALID,104,VALID,152.244,VALID,20.3659,VALID,129,VALID,0.332031,
2016-04-25, 07:57:04,VALID,917.548,VALID,0,VALID,104,VALID,175.344,VALID,20.2684,VALID,138,VALID,1.09609,
2016-04-25, 07:58:04,VALID,917.558,VALID,0,VALID,104,VALID,162.451,VALID,20.2863,VALID,147,VALID,0.954297,
2016-04-25, 07:59:04,VALID,917.55,VALID,0,VALID,104,VALID,223.155,VALID,20.2879,VALID,175,VALID,0.951172,
2016-04-25, 08:00:04,VALID,917.577,VALID,0,VALID,104,VALID,279.347,VALID,20.4423,VALID,171,VALID,0.00429688,
2016-04-25, 08:01:04,VALID,917.563,VALID,0,VALID,104,VALID,259.578,VALID,20.6179,VALID,169,VALID,0,
2016-04-25, 08:02:04,VALID,917.612,VALID,0,VALID,104,VALID,286.223,VALID,20.7154,VALID,169,VALID,0,
2016-04-25, 08:03:04,VALID,917.588,VALID,0,VALID,104,VALID,249.586,VALID,20.6179,VALID,174,VALID,0,
2016-04-25, 08:04:04,VALID,917.622,VALID,0,VALID,104,VALID,312.439,VALID,20.5999,VALID,180,VALID,0,
2016-04-25, 08:05:04,VALID,917.672,VALID,0,VALID,104,VALID,322.323,VALID,20.6569,VALID,170,VALID,0,
2016-04-25, 08:06:04,VALID,917.676,VALID,0,VALID,104,VALID,326.514,VALID,20.7544,VALID,170,VALID,0,
2016-04-25, 08:07:04,VALID,917.724,VALID,0,VALID,104,VALID,232.825,VALID,20.7138,VALID,159,VALID,0,
2016-04-25, 08:08:04,VALID,917.729,VALID,0,VALID,104,VALID,207.899,VALID,20.8925,VALID,69,VALID,0,
2016-04-25, 08:09:04,VALID,917.706,VALID,0,VALID,104,VALID,211.444,VALID,21.0291,VALID,55,VALID,0,
2016-04-25, 08:10:04,VALID,917.723,VALID,0,VALID,104,VALID,172.336,VALID,21.1852,VALID,55,VALID,0,
2016-04-25, 08:11:04,VALID,917.721,VALID,0,VALID,104,VALID,156.219,VALID,21.2031,VALID,59,VALID,0,
2016-04-25, 08:12:04,VALID,917.76,VALID,0,VALID,104,VALID,146.335,VALID,21.2226,VALID,56,VALID,0,
2016-04-25, 08:13:04,VALID,917.751,VALID,0,VALID,104,VALID,144.831,VALID,21.2226,VALID,55,VALID,0,
2016-04-25, 08:14:04,VALID,917.767,VALID,0,INVALID,109.083,VALID,146.979,VALID,21.125,VALID,56,VALID,0,
2016-04-25, 08:15:04,VALID,917.776,VALID,0,INVALID,109.335,VALID,150.418,VALID,21.008,VALID,53,VALID,0,
2016-04-25, 08:16:04,VALID,917.766,VALID,0,INVALID,109.465,VALID,154.715,VALID,20.9885,VALID,55,VALID,0,
2016-04-25, 08:17:04,VALID,917.812,VALID,0,INVALID,109.343,VALID,158.476,VALID,21.0064,VALID,59,VALID,0,
2016-04-25, 08:18:04,VALID,917.851,VALID,0,INVALID,109.32,VALID,162.666,VALID,21.0665,VALID,59,VALID,0,
2016-04-25, 08:19:04,VALID,917.855,VALID,0,INVALID,109.419,VALID,166.534,VALID,21.125,VALID,59,VALID,0,
2016-04-25, 08:20:04,VALID,917.839,VALID,0,INVALID,109.419,VALID,169.005,VALID,21.1429,VALID,16,VALID,0,
2016-04-25, 08:21:04,VALID,917.85,VALID,0,INVALID,109.663,VALID,169.972,VALID,21.1429,VALID,44,VALID,0,
2016-04-25, 08:22:04,VALID,917.895,VALID,0,INVALID,109.815,VALID,168.79,VALID,21.1445,VALID,44,VALID,0,
2016-04-25, 08:23:04,VALID,917.878,VALID,0,INVALID,109.808,VALID,168.575,VALID,21.2031,VALID,44,VALID,0,
2016-04-25, 08:24:04,VALID,917.903,VALID,0,INVALID,109.892,VALID,169.757,VALID,21.221,VALID,78,VALID,0,
2016-04-25, 08:25:04,VALID,917.902,VALID,0,INVALID,109.922,VALID,178.352,VALID,21.3022,VALID,79,VALID,0,
2016-04-25, 08:26:04,VALID,917.871,VALID,0,INVALID,110.257,VALID,217.568,VALID,21.2421,VALID,103,VALID,0,
2016-04-25, 08:27:04,VALID,917.873,VALID,0,INVALID,110.326,VALID,192.105,VALID,21.3022,VALID,93,VALID,0,
2016-04-25, 08:28:04,VALID,917.857,VALID,0,INVALID,110.379,VALID,206.824,VALID,21.3786,VALID,71,VALID,0,
2016-04-25, 08:29:04,VALID,917.838,VALID,0,INVALID,110.463,VALID,334.464,VALID,21.4567,VALID,72,VALID,0,
2016-04-25, 08:30:04,VALID,917.856,VALID,0,INVALID,110.905,VALID,308.571,VALID,21.4762,VALID,82,VALID,0,
2016-04-25, 08:31:04,VALID,917.883,VALID,0,INVALID,110.951,VALID,379.697,VALID,21.6144,VALID,73,VALID,0,
2016-04-25, 08:32:04,VALID,917.889,VALID,0,INVALID,111.027,VALID,383.243,VALID,21.7688,VALID,65,VALID,0,
2016-04-25, 08:33:04,VALID,917.86,VALID,0,INVALID,111.264,VALID,377.978,VALID,21.9071,VALID,109,VALID,0,
2016-04-25, 08:34:04,VALID,917.913,VALID,0,INVALID,111.515,VALID,371.639,VALID,22.0632,VALID,90,VALID,0,
2016-04-25, 08:35:04,VALID,917.935,VALID,0,INVALID,111.775,VALID,369.06,VALID,22.0225,VALID,90,VALID,0,
2016-04-25, 08:36:04,VALID,917.927,VALID,0,INVALID,111.18,VALID,370.779,VALID,22.1217,VALID,78,VALID,0,
2016-04-25, 08:37:04,VALID,917.922,VALID,0,INVALID,109.777,VALID,374.432,VALID,22.1981,VALID,116,VALID,0,
2016-04-25, 08:38:04,VALID,917.926,VALID,0,INVALID,109.297,VALID,383.457,VALID,22.3347,VALID,116,VALID,0,
2016-04-25, 08:39:04,VALID,917.946,VALID,0,VALID,104,VALID,391.086,VALID,22.4518,VALID,116,VALID,0,
2016-04-25, 08:40:04,VALID,917.927,VALID,0,VALID,104,VALID,405.053,VALID,22.6062,VALID,136,VALID,0,
2016-04-25, 08:41:04,VALID,917.951,VALID,0,VALID,104,VALID,414.293,VALID,22.8014,VALID,136,VALID,0,
2016-04-25, 08:42:04,VALID,917.955,VALID,0,VALID,104,VALID,418.591,VALID,23.0178,VALID,138,VALID,0,
2016-04-25, 08:43:04,VALID,917.914,VALID,0,VALID,104,VALID,430.624,VALID,23.1935,VALID,142,VALID,0,
2016-04-25, 08:44:04,VALID,917.928,VALID,0,VALID,104,VALID,445.236,VALID,23.3496,VALID,146,VALID,0,
2016-04-25, 08:45:04,VALID,917.973,VALID,0,VALID,103.038,VALID,447.707,VALID,23.4845,VALID,197,VALID,0,
2016-04-25, 08:46:04,VALID,917.973,VALID,0,VALID,102.969,VALID,445.666,VALID,23.5821,VALID,197,VALID,0,
2016-04-25, 08:47:04,VALID,917.952,VALID,0,VALID,102.581,VALID,441.153,VALID,23.6992,VALID,300,VALID,0,
2016-04-25, 08:48:04,VALID,917.943,VALID,0,VALID,101.323,VALID,445.236,VALID,23.6602,VALID,302,VALID,0,
2016-04-25, 08:49:04,VALID,917.925,VALID,0,VALID,102.794,VALID,448.244,VALID,23.4845,VALID,261,VALID,0,
2016-04-25, 08:50:04,VALID,917.909,VALID,0,VALID,103.457,VALID,456.088,VALID,23.3869,VALID,248,VALID,0,
2016-04-25, 08:51:04,VALID,917.905,VALID,0,VALID,104,VALID,462.104,VALID,23.2875,VALID,253,VALID,0,
2016-04-25, 08:52:04,VALID,917.902,VALID,0,VALID,104,VALID,463.501,VALID,23.2485,VALID,256,VALID,0,
2016-04-25, 08:53:04,VALID,917.875,VALID,0,VALID,104,VALID,455.873,VALID,23.2893,VALID,254,VALID,0,
2016-04-25, 08:54:04,VALID,917.883,VALID,0,VALID,103.107,VALID,444.914,VALID,23.3088,VALID,254,VALID,0,
2016-04-25, 08:55:04,VALID,917.918,VALID,0,VALID,100.522,VALID,455.873,VALID,23.3674,VALID,248,VALID,0,
2016-04-25, 08:56:04,VALID,917.944,VALID,0,VALID,102.489,VALID,466.509,VALID,23.3869,VALID,243,VALID,0,
2016-04-25, 08:57:04,VALID,917.949,VALID,0,VALID,99.4093,VALID,472.849,VALID,23.5235,VALID,241,VALID,0,
2016-04-25, 08:58:04,VALID,917.979,VALID,0,VALID,96.421,VALID,460.063,VALID,23.6211,VALID,241,VALID,0,
2016-04-25, 08:59:04,VALID,917.977,VALID,0,VALID,92.1823,VALID,409.888,VALID,23.6797,VALID,241,VALID,0,
2016-04-25, 09:00:04,VALID,917.979,VALID,0,VALID,85.0773,VALID,379.375,VALID,23.7578,VALID,241,VALID,0,
2016-04-25, 09:01:04,VALID,917.982,VALID,0,VALID,83.8881,VALID,258.718,VALID,23.7578,VALID,259,VALID,0,
2016-04-25, 09:02:04,VALID,918.006,VALID,0,VALID,85.1688,VALID,239.271,VALID,23.7968,VALID,260,VALID,0,
2016-04-25, 09:03:04,VALID,917.982,VALID,0,VALID,80.0916,VALID,240.883,VALID,23.8145,VALID,275,VALID,0,
2016-04-25, 09:04:04,VALID,917.969,VALID,0,VALID,79.0015,VALID,248.511,VALID,23.834,VALID,276,VALID,0,
2016-04-25, 09:05:04,VALID,918.009,VALID,0,VALID,76.3866,VALID,376.259,VALID,23.8554,VALID,276,VALID,0,
2016-04-25, 09:06:04,VALID,918.008,VALID,0,VALID,78.4068,VALID,311.579,VALID,23.9298,VALID,276,VALID,0,
2016-04-25, 09:07:04,VALID,918.01,VALID,0,VALID,79.2835,VALID,551.495,VALID,23.7968,VALID,276,VALID,0,
2016-04-25, 09:08:04,VALID,918.008,VALID,0,VALID,79.9086,VALID,546.338,VALID,23.7364,VALID,276,VALID,0,
2016-04-25, 09:09:04,VALID,918.018,VALID,0,VALID,80.2974,VALID,533.875,VALID,23.834,VALID,277,VALID,0,
2016-04-25, 09:10:04,VALID,918.04,VALID,0,VALID,79.2378,VALID,432.558,VALID,24.0292,VALID,255,VALID,0,
2016-04-25, 09:11:04,VALID,918.067,VALID,0,VALID,78.5364,VALID,387.863,VALID,24.2635,VALID,225,VALID,0,
2016-04-25, 09:12:04,VALID,918.069,VALID,0,VALID,78.2544,VALID,535.702,VALID,24.4392,VALID,237,VALID,0,
2016-04-25, 09:13:04,VALID,918.037,VALID,0,VALID,77.4234,VALID,411.715,VALID,24.5545,VALID,253,VALID,0,
2016-04-25, 09:14:04,VALID,918.061,VALID,0,VALID,76.1198,VALID,361.647,VALID,24.4959,VALID,237,VALID,0,
2016-04-25, 09:15:04,VALID,918.075,VALID,0,VALID,76.0512,VALID,268.925,VALID,24.3983,VALID,237,VALID,0,
2016-04-25, 09:16:04,VALID,918.06,VALID,0,VALID,77.4158,VALID,247.544,VALID,24.4783,VALID,334,VALID,0,
2016-04-25, 09:17:04,VALID,918.031,VALID,0,VALID,76.6077,VALID,233.899,VALID,24.5155,VALID,337,VALID,0,
2016-04-25, 09:18:04,VALID,918.035,VALID,0,VALID,75.609,VALID,213.915,VALID,24.5935,VALID,285,VALID,0,
2016-04-25, 09:19:04,VALID,918.059,VALID,0,VALID,74.7171,VALID,203.279,VALID,24.5935,VALID,202,VALID,0,
2016-04-25, 09:20:04,VALID,918.062,VALID,0,VALID,74.4122,VALID,193.179,VALID,24.6716,VALID,202,VALID,0,
2016-04-25, 09:21:04,VALID,918.028,VALID,0,VALID,74.1149,VALID,182.543,VALID,24.6716,VALID,202,VALID,0,
2016-04-25, 09:22:04,VALID,918.021,VALID,0,VALID,74.7552,VALID,183.939,VALID,24.5935,VALID,202,VALID,0,
2016-04-25, 09:23:04,VALID,918.044,VALID,0,VALID,74.9306,VALID,194.468,VALID,24.574,VALID,113,VALID,0,
2016-04-25, 09:24:04,VALID,918.019,VALID,0,VALID,76.2113,VALID,213.593,VALID,24.574,VALID,113,VALID,0,
2016-04-25, 09:25:04,VALID,918.05,VALID,0,VALID,75.4185,VALID,226.701,VALID,24.6735,VALID,56,VALID,0,
2016-04-25, 09:26:04,VALID,918.058,VALID,0,VALID,75.8911,VALID,568.149,VALID,24.7321,VALID,48,VALID,0,
2016-04-25, 09:27:04,VALID,918.065,VALID,0,VALID,79.253,VALID,354.986,VALID,24.8688,VALID,41,VALID,0,
2016-04-25, 09:28:04,VALID,918.053,VALID,0,VALID,80.1831,VALID,272.471,VALID,24.7711,VALID,338,VALID,0,
2016-04-25, 09:29:04,VALID,918.059,VALID,0,VALID,83.4307,VALID,199.518,VALID,24.7126,VALID,338,VALID,0,
2016-04-25, 09:30:04,VALID,918.063,VALID,0,VALID,85.9998,VALID,194.146,VALID,24.7126,VALID,347,VALID,0,
2016-04-25, 09:31:04,VALID,918.044,VALID,0,VALID,84.1168,VALID,192.964,VALID,24.6735,VALID,17,VALID,0,
2016-04-25, 09:32:04,VALID,918.051,VALID,0,VALID,84.1091,VALID,190.815,VALID,24.7126,VALID,16,VALID,0,
2016-04-25, 09:33:04,VALID,918.066,VALID,0,VALID,81.9517,VALID,206.18,VALID,24.5954,VALID,310,VALID,0,
2016-04-25, 09:34:04,VALID,918.084,VALID,0,VALID,82.0127,VALID,277.091,VALID,24.3026,VALID,264,VALID,0,
2016-04-25, 09:35:04,VALID,918.086,VALID,0,VALID,89.6437,VALID,471.882,VALID,24.0097,VALID,264,VALID,0,
2016-04-25, 09:36:04,VALID,918.09,VALID,0,VALID,97.6636,VALID,454.691,VALID,23.8517,VALID,264,VALID,0,
2016-04-25, 09:37:04,VALID,918.091,VALID,0,VALID,97.8237,VALID,466.509,VALID,23.8731,VALID,263,VALID,0,
2016-04-25, 09:38:04,VALID,918.095,VALID,0,VALID,96.6878,VALID,244.751,VALID,23.8713,VALID,267,VALID,0,
2016-04-25, 09:39:04,VALID,918.12,VALID,0,VALID,95.6891,VALID,258.826,VALID,23.9512,VALID,268,VALID,0,
2016-04-25, 09:40:04,VALID,918.109,VALID,0,VALID,91.4886,VALID,665.705,VALID,23.9902,VALID,268,VALID,0,
2016-04-25, 09:41:04,VALID,918.152,VALID,0,VALID,84.4065,VALID,391.408,VALID,24.1269,VALID,269,VALID,0,
2016-04-25, 09:42:04,VALID,918.161,VALID,0,VALID,79.7943,VALID,472.956,VALID,24.2635,VALID,272,VALID,0,
2016-04-25, 09:43:04,VALID,918.143,VALID,0,VALID,82.0584,VALID,431.376,VALID,24.4197,VALID,334,VALID,0,
2016-04-25, 09:44:04,VALID,918.171,VALID,0,VALID,81.9365,VALID,672.904,VALID,24.5954,VALID,12,VALID,0,
2016-04-25, 09:45:04,VALID,918.169,VALID,0,VALID,79.4436,VALID,658.614,VALID,24.8297,VALID,1,VALID,0,
2016-04-25, 09:46:04,VALID,918.184,VALID,0,VALID,75.1288,VALID,641.316,VALID,24.984,VALID,339,VALID,0,
2016-04-25, 09:47:04,VALID,918.155,VALID,0,VALID,75.0297,VALID,628.423,VALID,25.0445,VALID,308,VALID,0,
2016-04-25, 09:48:04,VALID,918.108,VALID,0,VALID,74.3131,VALID,617.357,VALID,24.9469,VALID,302,VALID,0,
2016-04-25, 09:49:04,VALID,918.136,VALID,0,VALID,74.2368,VALID,616.175,VALID,24.8669,VALID,262,VALID,0,
2016-04-25, 09:50:04,VALID,918.12,VALID,0,VALID,75.4794,VALID,619.935,VALID,24.9469,VALID,262,VALID,0,
2016-04-25, 09:51:04,VALID,918.103,VALID,0,VALID,76.0207,VALID,620.795,VALID,25.1988,VALID,262,VALID,0,
2016-04-25, 09:52:04,VALID,918.124,VALID,0,VALID,73.8404,VALID,626.274,VALID,25.3179,VALID,262,VALID,0,
2016-04-25, 09:53:04,VALID,918.151,VALID,0,VALID,73.5126,VALID,631.432,VALID,25.1598,VALID,285,VALID,0,
2016-04-25, 09:54:04,VALID,918.174,VALID,0,VALID,75.8606,VALID,635.837,VALID,25.1012,VALID,286,VALID,0,
2016-04-25, 09:55:04,VALID,918.209,VALID,0,VALID,73.1086,VALID,642.928,VALID,25.2183,VALID,271,VALID,0.6125,
2016-04-25, 09:56:04,VALID,918.213,VALID,0,VALID,73.9166,VALID,642.928,VALID,25.3355,VALID,326,VALID,1.1457,
2016-04-25, 09:57:04,VALID,918.219,VALID,0,VALID,72.7198,VALID,641.961,VALID,25.3355,VALID,308,VALID,0,
2016-04-25, 09:58:04,VALID,918.251,VALID,0,VALID,71.8354,VALID,648.515,VALID,25.4937,VALID,318,VALID,0,
2016-04-25, 09:59:04,VALID,918.206,VALID,0,VALID,72.552,VALID,655.821,VALID,25.5289,INVALID,360,VALID,0,
2016-04-25, 10:00:04,VALID,918.199,VALID,0,VALID,72.3462,VALID,651.631,VALID,25.6284,VALID,332,VALID,0,
2016-04-25, 10:01:04,VALID,918.222,VALID,0,VALID,70.7987,VALID,653.135,VALID,25.607,VALID,316,VALID,0,
2016-04-25, 10:02:04,VALID,918.222,VALID,0,VALID,71.4467,VALID,653.35,VALID,25.648,VALID,315,VALID,0,
2016-04-25, 10:03:04,VALID,918.196,VALID,0,VALID,70.852,VALID,668.284,VALID,25.607,VALID,274,VALID,0,
2016-04-25, 10:04:04,VALID,918.181,VALID,0,VALID,72.0565,VALID,674.838,VALID,25.6851,VALID,274,VALID,0,
2016-04-25, 10:05:04,VALID,918.197,VALID,0,VALID,71.2408,VALID,694.929,VALID,25.7847,VALID,274,VALID,0,
2016-04-25, 10:06:04,VALID,918.17,VALID,0,VALID,72.8265,VALID,416.12,VALID,25.8413,VALID,274,VALID,0.181641,
2016-04-25, 10:07:04,VALID,918.181,VALID,0,VALID,71.2866,VALID,268.495,VALID,25.8999,VALID,5,VALID,0.625,
2016-04-25, 10:08:04,VALID,918.173,VALID,0,VALID,69.4722,VALID,425.574,VALID,26.0171,VALID,12,VALID,0.396094,
2016-04-25, 10:09:04,VALID,918.159,VALID,0,VALID,68.0161,VALID,749.187,VALID,26.2339,VALID,5,VALID,0.530078,
2016-04-25, 10:10:04,VALID,918.162,VALID,0,VALID,65.3403,VALID,709.649,VALID,26.1928,VALID,305,VALID,0.791797,
2016-04-25, 10:11:04,VALID,918.146,VALID,0,VALID,67.9399,VALID,698.69,VALID,26.1342,VALID,271,VALID,0.169141,
2016-04-25, 10:12:04,VALID,918.14,VALID,0,VALID,69.556,VALID,750.799,VALID,26.2514,VALID,310,VALID,0.6125,
2016-04-25, 10:13:04,VALID,918.138,VALID,0,VALID,70.8596,VALID,524.743,VALID,26.4663,VALID,354,VALID,0.724219,
2016-04-25, 10:14:04,VALID,918.143,VALID,0,VALID,68.0619,VALID,609.943,VALID,26.6812,VALID,358,VALID,1.24766,
2016-04-25, 10:15:04,VALID,918.127,VALID,0,VALID,67.8484,VALID,693.425,VALID,26.7788,VALID,16,VALID,0.985547,
2016-04-25, 10:16:04,VALID,918.109,VALID,0,VALID,67.6121,VALID,677.524,VALID,26.8199,VALID,60,VALID,1.34453,
2016-04-25, 10:17:04,VALID,918.086,VALID,0,VALID,69.396,VALID,388.077,VALID,26.6226,VALID,29,VALID,0.857813,
2016-04-25, 10:18:04,VALID,918.072,VALID,0,VALID,68.4049,VALID,664.738,VALID,26.5619,VALID,350,VALID,1.01523,
2016-04-25, 10:19:04,VALID,918.052,VALID,0,VALID,68.6336,VALID,710.079,VALID,26.5249,VALID,350,VALID,0.376563,
2016-04-25, 10:20:04,VALID,918.011,VALID,0,VALID,70.8596,VALID,697.078,VALID,26.5074,VALID,20,VALID,0,
2016-04-25, 10:21:04,VALID,918.024,VALID,0,VALID,71.157,VALID,704.169,VALID,26.5249,VALID,32,VALID,0.745703,
2016-04-25, 10:22:04,VALID,918.019,VALID,0,VALID,71.5305,VALID,511.85,VALID,26.5835,VALID,11,VALID,0.159375,
2016-04-25, 10:23:04,VALID,918.07,VALID,0,VALID,68.7403,VALID,530.222,VALID,26.564,VALID,311,VALID,0,
2016-04-25, 10:24:04,VALID,918.062,VALID,0,VALID,72.0489,VALID,370.565,VALID,26.3882,VALID,340,VALID,0,
2016-04-25, 10:25:04,VALID,918.069,VALID,0,VALID,71.8431,VALID,431.699,VALID,26.2905,VALID,355,VALID,0,
2016-04-25, 10:26:04,VALID,918.067,VALID,0,VALID,69.7543,VALID,312.654,VALID,26.2925,VALID,339,VALID,0,
2016-04-25, 10:27:04,VALID,918.097,VALID,0,VALID,69.3197,VALID,312.654,VALID,26.4097,VALID,360,VALID,0,
2016-04-25, 10:28:04,VALID,918.093,VALID,0,VALID,69.861,VALID,224.874,VALID,26.2905,VALID,250,VALID,0,
2016-04-25, 10:29:04,VALID,918.081,VALID,0,VALID,71.1493,VALID,218.32,VALID,26.0561,VALID,285,VALID,0,
2016-04-25, 10:30:04,VALID,918.05,VALID,0,VALID,71.6982,VALID,236.585,VALID,25.978,VALID,285,VALID,0,
2016-04-25, 10:31:04,VALID,918.076,VALID,0,VALID,73.505,VALID,785.825,VALID,25.9585,VALID,282,VALID,0,
2016-04-25, 10:32:04,VALID,918.07,VALID,0,VALID,73.9395,VALID,739.625,VALID,26.0776,VALID,285,VALID,0,
2016-04-25, 10:33:04,VALID,918.077,VALID,0,VALID,70.1278,VALID,341.878,VALID,26.1948,VALID,285,VALID,0,
2016-04-25, 10:34:04,VALID,918.067,VALID,0,VALID,70.8749,VALID,760.361,VALID,26.2124,VALID,285,VALID,0,
2016-04-25, 10:35:04,VALID,918.09,VALID,0,VALID,70.5242,VALID,535.809,VALID,26.2514,VALID,285,VALID,0,
2016-04-25, 10:36:04,VALID,918.117,VALID,0,VALID,71.4314,VALID,781.312,VALID,26.3882,VALID,285,VALID,0,
2016-04-25, 10:37:04,VALID,918.138,VALID,0,VALID,68.9614,VALID,748.113,VALID,26.6226,VALID,316,VALID,0,
2016-04-25, 10:38:04,VALID,918.119,VALID,0,VALID,66.8726,VALID,778.089,VALID,26.6812,VALID,294,VALID,0,
2016-04-25, 10:39:04,VALID,918.169,VALID,0,VALID,67.4367,VALID,796.998,VALID,26.6812,VALID,256,VALID,0,
2016-04-25, 10:40:04,VALID,918.131,VALID,0,VALID,67.5587,VALID,792.701,VALID,26.6812,VALID,257,VALID,0,
2016-04-25, 10:41:04,VALID,918.156,VALID,0,VALID,68.7098,VALID,763.692,VALID,26.7593,VALID,328,VALID,0,
2016-04-25, 10:42:04,VALID,918.163,VALID,0,VALID,68.1305,VALID,737.154,VALID,26.896,VALID,323,VALID,0,
2016-04-25, 10:43:04,VALID,918.139,VALID,0,VALID,69.8076,VALID,747.683,VALID,26.9742,VALID,353,VALID,0,
2016-04-25, 10:44:04,VALID,918.127,VALID,0,VALID,67.4215,VALID,692.673,VALID,27.0503,VALID,356,VALID,0,
2016-04-25, 10:45:04,VALID,918.097,VALID,0,VALID,68.4125,VALID,703.74,VALID,26.9546,VALID,10,VALID,0.0183594,
2016-04-25, 10:46:04,VALID,918.116,VALID,0,VALID,70.7605,VALID,290.521,VALID,26.601,VALID,60,VALID,0,
2016-04-25, 10:47:04,VALID,918.096,VALID,0,VALID,71.2561,VALID,505.081,VALID,26.4057,VALID,74,VALID,0,
2016-04-25, 10:48:04,VALID,918.074,VALID,0,VALID,71.9193,VALID,273.115,VALID,26.4663,VALID,34,VALID,0.580469,
2016-04-25, 10:49:04,VALID,918.084,VALID,0,VALID,70.2269,VALID,268.066,VALID,26.4057,VALID,299,VALID,0,
2016-04-25, 10:50:04,VALID,918.077,VALID,0,VALID,71.9498,VALID,724.476,VALID,26.1733,VALID,357,VALID,0,
2016-04-25, 10:51:04,VALID,918.037,VALID,0,VALID,72.6664,VALID,669.358,VALID,26.1342,VALID,352,VALID,0,
2016-04-25, 10:52:04,VALID,918.042,VALID,0,VALID,72.7426,VALID,375.185,VALID,26.1538,VALID,352,VALID,0,
2016-04-25, 10:53:04,VALID,918.028,VALID,0,VALID,72.4148,VALID,349.399,VALID,26.271,VALID,352,VALID,0,
2016-04-25, 10:54:04,VALID,918.042,VALID,0,VALID,72.2166,VALID,385.391,VALID,26.3666,VALID,342,VALID,0,
2016-04-25, 10:55:04,VALID,918.013,VALID,0,VALID,72.209,VALID,350.043,VALID,26.3491,VALID,341,VALID,0,
2016-04-25, 10:56:04,VALID,918.03,VALID,0,VALID,73.9853,VALID,307.711,VALID,26.3666,VALID,328,VALID,0,
2016-04-25, 10:57:04,VALID,917.996,VALID,0,VALID,73.505,VALID,294.604,VALID,26.4272,VALID,325,VALID,0,
2016-04-25, 10:58:04,VALID,918.006,VALID,0,VALID,72.918,VALID,286.546,VALID,26.5054,VALID,10,VALID,0,
2016-04-25, 10:59:04,VALID,918.007,VALID,0,VALID,73.9243,VALID,281.388,VALID,26.603,VALID,5,VALID,0,
2016-04-25, 11:00:04,VALID,918.004,VALID,0,VALID,73.0781,VALID,277.628,VALID,26.6791,VALID,360,VALID,0,
2016-04-25, 11:01:04,VALID,917.989,VALID,0,VALID,71.3399,VALID,284.719,VALID,26.5054,VALID,290,VALID,0,
2016-04-25, 11:02:04,VALID,917.981,VALID,0,VALID,74.374,VALID,311.902,VALID,26.3491,VALID,287,VALID,0,
2016-04-25, 11:03:04,VALID,917.944,VALID,0,VALID,73.5355,VALID,319.208,VALID,26.2299,VALID,286,VALID,0,
2016-04-25, 11:04:04,VALID,917.945,VALID,0,VALID,73.9853,VALID,309.323,VALID,26.1127,VALID,286,VALID,0,
2016-04-25, 11:05:04,VALID,917.923,VALID,0,VALID,75.2736,VALID,292.025,VALID,25.9585,VALID,286,VALID,0,
2016-04-25, 11:06:04,VALID,917.909,VALID,0,VALID,74.9534,VALID,292.992,VALID,25.8784,VALID,249,VALID,0,
2016-04-25, 11:07:04,VALID,917.903,VALID,0,VALID,76.1198,VALID,309.968,VALID,25.8589,VALID,228,VALID,0,
2016-04-25, 11:08:04,VALID,917.901,VALID,0,VALID,76.501,VALID,314.48,VALID,25.7808,VALID,233,VALID,0,
2016-04-25, 11:09:04,VALID,917.899,VALID,0,VALID,76.3942,VALID,451.253,VALID,25.7046,VALID,246,VALID,0,
2016-04-25, 11:10:04,VALID,917.916,VALID,0,VALID,77.4539,VALID,532.801,VALID,25.7632,VALID,211,VALID,0,
2016-04-25, 11:11:04,VALID,917.925,VALID,0,VALID,76.3561,VALID,320.927,VALID,25.8393,VALID,247,VALID,0,
2016-04-25, 11:12:04,VALID,917.91,VALID,0,VALID,76.6611,VALID,311.902,VALID,25.9585,VALID,244,VALID,0,
2016-04-25, 11:13:04,VALID,917.933,VALID,0,VALID,78.018,VALID,286.975,VALID,26.1538,VALID,308,VALID,0,
2016-04-25, 11:14:04,VALID,917.938,VALID,0,VALID,77.7055,VALID,276.876,VALID,26.2299,VALID,314,VALID,0,
2016-04-25, 11:15:04,VALID,917.903,VALID,0,VALID,76.0588,VALID,274.405,VALID,26.3666,VALID,349,VALID,0,
2016-04-25, 11:16:04,VALID,917.892,VALID,0,VALID,75.9902,VALID,280.314,VALID,26.3862,VALID,33,VALID,0,
2016-04-25, 11:17:04,VALID,917.894,VALID,0,VALID,76.9203,VALID,263.016,VALID,26.4663,VALID,33,VALID,0,
2016-04-25, 11:18:04,VALID,917.918,VALID,0,VALID,74.0767,VALID,254.098,VALID,26.4663,VALID,272,VALID,0,
2016-04-25, 11:19:04,VALID,917.909,VALID,0,VALID,74.5189,VALID,248.511,VALID,26.4077,VALID,274,VALID,0,
2016-04-25, 11:20:04,VALID,917.914,VALID,0,VALID,74.6256,VALID,239.594,VALID,26.3686,VALID,272,VALID,0,
2016-04-25, 11:21:04,VALID,917.901,VALID,0,VALID,77.2481,VALID,229.924,VALID,26.3296,VALID,272,VALID,0,
2016-04-25, 11:22:04,VALID,917.897,VALID,0,VALID,77.6064,VALID,228.42,VALID,26.3471,VALID,312,VALID,0,
2016-04-25, 11:23:04,VALID,917.849,VALID,0,VALID,74.8238,VALID,231.321,VALID,26.3491,VALID,301,VALID,0,
2016-04-25, 11:24:04,VALID,917.826,VALID,0,VALID,75.5557,VALID,243.462,VALID,26.308,VALID,305,VALID,0,
2016-04-25, 11:25:04,VALID,917.815,VALID,0,VALID,75.6167,VALID,265.165,VALID,26.2905,VALID,340,VALID,0,